EW0624 Weather Reports


Display with metric or nautical units.
time (UTC)temp
F
wind
direction
speed
MPH
gust
MPH
rain 1hr
in
rain 24hr
in
rain mn
in
humidity
%
barometer
mb
20221210080903 42 20 0.0 0.0 0.00 0.36 0.02 96 1012.2
20221210074903 42 20 0.0 0.0 0.00 0.36 0.02 95 1012.3
20221210074404 42 20 0.0 0.0 0.00 0.36 0.02 95 1012.3
20221210073904 43 20 0.0 0.0 0.00 0.36 0.02 95 1012.3
20221210073403 43 20 0.0 0.0 0.00 0.36 0.02 96 1012.2
20221210072903 43 21 0.0 0.0 0.00 0.36 0.02 96 1012.0
20221210072404 43 21 0.0 0.0 0.00 0.36 0.02 96 1011.8
20221210071404 43 23 0.0 3.0 0.00 0.36 0.02 96 1011.6
20221210070903 43 24 2.0 3.0 0.00 0.36 0.02 96 1011.3
20221210070404 43 40 2.0 5.0 0.00 0.36 0.02 96 1011.4
20221210065904 43 70 0.0 2.0 0.00 0.36 0.02 96 1011.1
20221210064403 43 69 1.0 3.0 0.00 0.36 0.02 96 1011.1
20221210063404 43 67 0.0 0.0 0.00 0.36 0.02 96 1011.1
20221210062904 43 67 0.0 2.0 0.00 0.36 0.02 96 1011.1
20221210062403 43 65 0.0 3.0 0.00 0.36 0.02 96 1011.0
20221210060403 44 24 0.0 6.0 0.00 0.39 0.02 97 1011.1
20221210055404 44 44 2.0 5.0 0.00 0.40 0.02 97 1010.9
20221210054903 44 39 2.0 3.0 0.00 0.40 0.02 97 1010.9
20221210053904 44 21 1.0 3.0 0.00 0.40 0.02 97 1010.7
20221210053403 44 81 2.0 3.0 0.00 0.40 0.02 97 1010.8
20221210052904 44 71 1.0 3.0 0.00 0.40 0.02 97 1010.8
20221210052403 44 61 0.0 0.0 0.00 0.40 0.02 97 1010.7
20221210051404 44 57 0.0 0.0 0.00 0.40 0.02 97 1010.7
20221210050903 44 59 0.0 0.0 0.00 0.40 0.02 97 1010.7
20221210050404 44 59 0.0 0.0 0.00 0.40 0.02 98 1010.7
20221210045903 44 61 0.0 0.0 0.00 0.40 0.02 98 1010.6
20221210044403 44 61 0.0 0.0 0.00 0.40 0.02 98 1010.5
20221210043903 44 61 1.0 3.0 0.00 0.40 0.02 98 1010.5
20221210043404 44 62 0.0 2.0 0.00 0.40 0.02 98 1010.4
20221210042404 44 51 3.0 5.0 0.00 0.40 0.02 98 1010.5
20221210041903 44 19 1.0 5.0 0.00 0.40 0.02 98 1010.5
20221210041404 44 49 2.0 5.0 0.00 0.40 0.02 98 1010.4
20221210040903 44 46 1.0 5.0 0.00 0.40 0.02 98 1010.4
20221210040404 44 47 2.0 6.0 0.00 0.40 0.02 98 1010.4
20221210035904 44 34 0.0 0.0 0.00 0.40 0.02 98 1010.5
20221210035403 44 34 0.0 3.0 0.00 0.40 0.02 98 1010.5
20221210034404 44 346 0.0 0.0 0.00 0.40 0.02 98 1010.5
20221210033903 44 346 0.0 0.0 0.00 0.40 0.02 98 1010.5
20221210032904 44 346 0.0 0.0 0.00 0.40 0.02 98 1010.5
20221210032403 44 346 0.0 0.0 0.00 0.40 0.02 98 1010.5
20221210031903 44 346 0.0 0.0 0.00 0.40 0.02 98 1010.5
20221210031404 44 346 0.0 0.0 0.00 0.40 0.02 98 1010.5
20221210030903 44 346 0.0 0.0 0.00 0.40 0.02 98 1010.5
20221210030403 44 346 0.0 0.0 0.00 0.40 0.02 98 1010.5
20221210025903 44 346 0.0 0.0 0.00 0.40 0.02 98 1010.6
20221210025403 45 346 0.0 0.0 0.00 0.40 0.02 98 1010.5
20221210024905 45 346 0.0 0.0 0.00 0.40 0.02 98 1010.6
20221210024404 44 346 0.0 0.0 0.00 0.40 0.02 98 1010.5
20221210023904 44 57 0.0 0.0 0.00 0.40 0.02 98 1010.5
20221210023404 44 57 0.0 0.0 0.00 0.40 0.02 98 1010.4
20221210022903 44 57 0.0 3.0 0.00 0.40 0.02 98 1010.3
20221210022404 44 59 0.0 0.0 0.00 0.40 0.02 98 1010.2
20221210021903 44 59 0.0 0.0 0.00 0.40 0.02 98 1010.2
20221210021403 45 59 0.0 0.0 0.00 0.40 0.02 98 1010.1
20221210020904 44 59 0.0 0.0 0.00 0.40 0.02 98 1010.0
20221210015903 45 59 0.0 0.0 0.00 0.40 0.02 98 1009.7
20221210015403 45 59 0.0 0.0 0.00 0.40 0.02 98 1009.7
20221210014904 45 59 0.0 0.0 0.00 0.40 0.02 98 1009.6
20221210014404 45 64 0.0 0.0 0.00 0.40 0.02 98 1009.5
20221210013904 45 64 0.0 0.0 0.00 0.40 0.02 98 1009.5
20221210013404 45 64 0.0 0.0 0.00 0.40 0.02 98 1009.5
20221210012903 45 64 0.0 0.0 0.00 0.40 0.02 98 1009.4
20221210012404 45 64 0.0 0.0 0.00 0.40 0.02 98 1009.5
20221210011904 45 64 0.0 0.0 0.00 0.40 0.02 98 1009.4
20221210011403 45 65 0.0 0.0 0.00 0.40 0.02 98 1009.3
20221210010904 45 64 0.0 0.0 0.00 0.40 0.02 98 1009.2
20221210010404 45 64 0.0 0.0 0.00 0.40 0.02 98 1009.2
20221210005407 45 65 0.0 0.0 0.00 0.40 0.02 98 1009.3
20221210004905 45 65 0.0 0.0 0.01 0.40 0.02 98 1009.3
20221210004404 45 65 0.0 0.0 0.01 0.40 0.02 98 1009.3
20221210003904 45 65 0.0 0.0 0.02 0.40 0.02 98 1009.3
20221210002904 45 65 0.0 3.0 0.02 0.40 0.02 98 1009.2
20221210002404 45 65 1.0 3.0 0.02 0.40 0.02 98 1009.1
20221210001904 45 64 0.0 3.0 0.02 0.40 0.02 98 1009.1
20221210000904 45 57 0.0 3.0 0.02 0.40 0.02 98 1009.1
20221210000403 44 53 0.0 3.0 0.02 0.40 0.02 98 1009.1
20221209235904 44 53 3.0 6.0 0.02 0.40 0.02 98 1009.1
20221209234904 45 36 1.0 8.0 0.01 0.39 0.01 99 1009.1
20221209233903 45 31 3.0 7.0 0.00 0.39 0.00 99 1009.1
20221209233404 45 60 3.0 6.0 0.00 0.39 0.00 99 1009.1
20221209232404 44 34 5.0 12.0 0.00 0.39 0.00 99 1008.9
20221209231904 45 24 6.0 10.0 0.00 0.39 0.00 99 1008.9
20221209231404 45 357 1.0 5.0 0.01 0.39 0.00 99 1008.8
20221209230906 45 352 5.0 9.0 0.01 0.39 0.00 99 1008.8
20221209230404 45 8 2.0 9.0 0.01 0.39 0.00 100 1008.7
20221209224904 45 61 1.0 3.0 0.02 0.39 0.39 100 1008.4
20221209224404 45 67 0.0 3.0 0.02 0.39 0.39 100 1008.4
20221209223404 45 66 0.0 3.0 0.02 0.39 0.39 100 1008.3
20221209222903 45 68 0.0 3.0 0.02 0.39 0.39 100 1008.3
20221209221904 45 59 2.0 7.0 0.02 0.39 0.39 100 1008.2
20221209221404 45 355 2.0 10.0 0.01 0.39 0.39 100 1008.1
20221209220904 45 51 5.0 10.0 0.01 0.39 0.39 100 1008.2
20221209220404 45 34 2.0 7.0 0.01 0.39 0.39 100 1008.1
20221209215904 45 26 1.0 5.0 0.01 0.39 0.39 100 1008.0
20221209215404 45 20 2.0 8.0 0.01 0.39 0.39 100 1008.0
20221209214903 45 6 3.0 9.0 0.00 0.38 0.38 100 1008.0
20221209214404 45 38 1.0 7.0 0.00 0.38 0.38 100 1007.9
20221209213904 45 42 3.0 7.0 0.00 0.38 0.38 100 1007.9
20221209213404 45 46 2.0 5.0 0.00 0.38 0.38 100 1007.8
20221209212904 45 27 2.0 5.0 0.00 0.38 0.38 100 1007.8
20221209212404 45 26 0.0 0.0 0.00 0.38 0.38 100 1007.8
20221209211904 45 29 0.0 2.0 0.00 0.38 0.38 100 1007.8
20221209211404 45 32 3.0 6.0 0.00 0.38 0.38 100 1007.7
20221209210904 45 33 3.0 6.0 0.00 0.38 0.38 100 1007.6
20221209210404 45 11 3.0 6.0 0.00 0.38 0.38 100 1007.5
20221209205404 45 21 0.0 0.0 0.00 0.38 0.38 100 1007.4
20221209204904 45 22 0.0 0.0 0.00 0.38 0.38 100 1007.4
20221209204404 45 22 0.0 0.0 0.00 0.38 0.38 100 1007.4
20221209203904 45 22 0.0 0.0 0.00 0.38 0.38 100 1007.3
20221209203404 45 22 0.0 0.0 0.00 0.38 0.38 100 1007.2
20221209202904 45 22 0.0 0.0 0.00 0.38 0.38 100 1007.0
20221209202404 45 22 2.0 5.0 0.01 0.38 0.38 100 1007.0
20221209201903 45 5 1.0 5.0 0.01 0.38 0.38 100 1006.9
20221209201404 45 32 2.0 6.0 0.02 0.38 0.38 100 1006.8
20221209200904 45 20 3.0 8.0 0.02 0.38 0.38 100 1006.8
20221209200404 45 6 3.0 6.0 0.02 0.38 0.38 100 1006.8
20221209195907 45 40 0.0 3.0 0.03 0.38 0.38 100 1006.8
20221209195404 45 40 1.0 6.0 0.04 0.38 0.38 100 1006.7
20221209194904 45 29 3.0 8.0 0.05 0.39 0.38 100 1006.6
20221209194404 45 9 4.0 9.0 0.06 0.39 0.38 100 1006.5
20221209193904 45 18 2.0 5.0 0.06 0.39 0.38 100 1006.4
20221209193406 45 32 5.0 8.0 0.06 0.39 0.38 100 1006.3
20221209192903 46 18 5.0 8.0 0.07 0.39 0.38 100 1006.2
20221209192403 45 65 2.0 5.0 0.06 0.39 0.37 100 1006.1
20221209191404 45 47 6.0 12.0 0.06 0.38 0.36 100 1006.0
20221209190904 45 42 4.0 9.0 0.06 0.37 0.35 100 1005.9
20221209190404 45 358 6.0 13.0 0.06 0.37 0.35 100 1005.8
20221209185903 45 20 3.0 13.0 0.06 0.36 0.35 100 1005.7
20221209185403 45 22 10.0 15.0 0.05 0.35 0.34 100 1005.6
20221209184904 46 15 5.0 12.0 0.04 0.35 0.33 100 1005.5
20221209184404 46 2 6.0 12.0 0.03 0.34 0.32 100 1005.4
20221209183904 46 31 3.0 9.0 0.02 0.33 0.31 100 1005.4
20221209183404 46 24 7.0 15.0 0.03 0.33 0.31 100 1005.3
20221209182404 46 10 7.0 14.0 0.02 0.32 0.31 100 1005.1
20221209181904 46 346 9.0 18.0 0.02 0.31 0.30 100 1005.0
20221209181403 45 10 10.0 23.0 0.02 0.31 0.30 100 1004.8
20221209180904 46 18 12.0 20.0 0.02 0.31 0.30 100 1004.8
20221209175903 46 4 13.0 22.0 0.02 0.31 0.29 100 1004.5
20221209175404 46 12 12.0 23.0 0.02 0.31 0.29 100 1004.4
20221209174404 46 8 12.0 18.0 0.02 0.31 0.29 100 1004.2
20221209173904 46 6 8.0 17.0 0.03 0.31 0.29 100 1004.1
20221209173404 46 6 13.0 20.0 0.03 0.30 0.28 100 1004.0
20221209172904 46 22 9.0 15.0 0.03 0.30 0.28 100 1003.8
20221209172403 46 353 12.0 18.0 0.04 0.30 0.28 100 1003.7
20221209171903 46 10 13.0 21.0 0.05 0.30 0.28 100 1003.7
20221209171404 46 15 12.0 20.0 0.06 0.30 0.28 100 1003.6
20221209170903 46 8 14.0 18.0 0.06 0.29 0.28 100 1003.6
20221209170405 46 6 12.0 21.0 0.06 0.29 0.28 100 1003.5
20221209165404 46 17 13.0 23.0 0.06 0.28 0.27 100 1003.2
20221209164904 46 12 14.0 20.0 0.06 0.28 0.27 100 1003.2
20221209164404 47 15 13.0 22.0 0.06 0.28 0.27 100 1003.1
20221209163903 47 16 8.0 16.0 0.06 0.28 0.26 100 1003.0
20221209163404 47 357 10.0 17.0 0.06 0.27 0.25 100 1002.9
20221209162904 47 12 9.0 15.0 0.06 0.27 0.25 100 1002.8
20221209161903 47 15 12.0 23.0 0.04 0.25 0.24 100 1002.6
20221209161404 47 25 12.0 17.0 0.03 0.24 0.23 100 1002.5
20221209160903 47 13 9.0 20.0 0.02 0.24 0.22 100 1002.5
20221209160404 47 10 8.0 17.0 0.02 0.24 0.22 100 1002.5
20221209155403 47 13 9.0 17.0 0.01 0.22 0.20 100 1002.3
20221209154903 47 358 8.0 15.0 0.02 0.22 0.20 100 1002.3
20221209154404 47 357 8.0 16.0 0.02 0.22 0.20 100 1002.2
20221209153903 47 9 7.0 16.0 0.01 0.21 0.20 100 1002.0
20221209152904 47 349 10.0 17.0 0.01 0.21 0.20 100 1001.7
20221209152404 47 42 6.0 17.0 0.01 0.21 0.20 100 1001.7
20221209151403 48 21 7.0 17.0 0.01 0.21 0.20 100 1001.5
20221209150404 48 357 9.0 15.0 0.02 0.21 0.20 100 1001.3
20221209145904 48 17 9.0 17.0 0.02 0.21 0.20 100 1001.2
20221209145404 48 29 6.0 17.0 0.02 0.21 0.20 100 1001.1
20221209144904 48 12 9.0 16.0 0.02 0.20 0.19 100 1001.1
20221209144403 48 19 14.0 22.0 0.02 0.20 0.19 100 1001.1
20221209143903 48 19 11.0 17.0 0.02 0.20 0.19 100 1001.0
20221209143402 48 17 11.0 18.0 0.03 0.20 0.19 100 1000.9
20221209142902 48 25 13.0 18.0 0.03 0.20 0.19 100 1000.8
20221209142403 48 350 9.0 17.0 0.03 0.20 0.19 100 1000.7
20221209141902 48 24 12.0 17.0 0.04 0.20 0.19 100 1000.7
20221209141403 48 19 10.0 17.0 0.04 0.20 0.19 100 1000.7
20221209140903 48 7 7.0 18.0 0.05 0.20 0.19 100 1000.7
20221209140403 48 16 13.0 20.0 0.04 0.20 0.18 100 1000.6
20221209135403 48 31 10.0 20.0 0.05 0.19 0.17 100 1000.6
20221209134902 48 358 9.0 18.0 0.06 0.19 0.17 100 1000.6
20221209134403 48 19 9.0 18.0 0.06 0.19 0.17 100 1000.5
20221209133403 49 17 10.0 20.0 0.06 0.17 0.16 100 1000.5
20221209132902 49 10 9.0 17.0 0.07 0.17 0.16 100 1000.5
20221209132403 49 22 8.0 14.0 0.07 0.17 0.16 100 1000.4
20221209131903 49 14 7.0 15.0 0.07 0.17 0.15 100 1000.4
20221209130903 49 23 12.0 20.0 0.08 0.16 0.14 100 1000.4
20221209130403 49 36 9.0 20.0 0.08 0.16 0.14 100 1000.4
20221209125902 49 27 10.0 20.0 0.07 0.15 0.13 100 1000.4
20221209125403 49 24 9.0 20.0 0.06 0.14 0.13 100 1000.4
20221209124903 49 16 9.0 16.0 0.06 0.13 0.12 100 1000.4
20221209124403 49 25 12.0 23.0 0.06 0.13 0.11 100 1000.4
20221209123903 49 15 14.0 20.0 0.05 0.12 0.10 100 1000.4
20221209122903 49 13 10.0 20.0 0.03 0.10 0.09 100 1000.2
20221209122403 49 33 12.0 20.0 0.03 0.10 0.09 100 1000.1
20221209121903 49 32 9.0 18.0 0.02 0.09 0.08 100 1000.2
20221209121402 49 20 10.0 17.0 0.02 0.09 0.07 100 1000.3
20221209120902 49 16 10.0 20.0 0.01 0.08 0.06 100 1000.3
20221209120403 49 31 10.0 18.0 0.01 0.08 0.06 100 1000.2
20221209115402 49 20 9.0 17.0 0.01 0.08 0.06 100 1000.3
20221209114903 49 36 10.0 17.0 0.01 0.08 0.06 100 1000.2
20221209114403 49 18 12.0 18.0 0.00 0.07 0.06 100 1000.2
20221209113902 50 36 11.0 18.0 0.00 0.07 0.06 100 1000.2
20221209113402 50 3 5.0 17.0 0.00 0.07 0.06 100 1000.2
20221209112903 50 29 8.0 14.0 0.00 0.07 0.06 100 1000.3
20221209112403 50 31 7.0 12.0 0.00 0.07 0.06 100 1000.4
20221209111902 50 39 6.0 12.0 0.00 0.07 0.06 100 1000.5
20221209111402 50 23 5.0 12.0 0.00 0.07 0.06 100 1000.5
20221209110903 50 31 6.0 12.0 0.00 0.07 0.06 100 1000.6
20221209110403 50 40 6.0 12.0 0.01 0.07 0.06 100 1000.6
20221209105903 50 45 6.0 12.0 0.01 0.07 0.06 100 1000.6
20221209104902 50 49 8.0 13.0 0.01 0.07 0.06 100 1000.6
20221209104403 50 43 6.0 12.0 0.01 0.07 0.06 100 1000.6
20221209103902 50 38 5.0 12.0 0.01 0.07 0.06 100 1000.6
20221209102903 50 31 8.0 12.0 0.01 0.07 0.06 100 1000.5
20221209102402 50 42 5.0 12.0 0.01 0.07 0.06 100 1000.5
20221209101903 49 23 5.0 12.0 0.01 0.07 0.06 100 1000.5
20221209101403 49 45 7.0 12.0 0.01 0.07 0.06 100 1000.4
20221209100902 49 34 5.0 12.0 0.01 0.07 0.06 100 1000.4
20221209100402 50 37 5.0 10.0 0.00 0.06 0.05 100 1000.4
20221209095903 50 33 3.0 12.0 0.00 0.06 0.05 100 1000.3
20221209095403 49 1 7.0 12.0 0.00 0.06 0.05 100 1000.3
20221209094402 50 34 4.0 12.0 0.00 0.06 0.05 100 1000.1
20221209093902 50 37 6.0 10.0 0.00 0.06 0.05 100 1000.1
20221209093402 49 38 3.0 12.0 0.00 0.06 0.05 100 1000.1
20221209092903 50 356 6.0 10.0 0.00 0.06 0.05 100 1000.1
20221209092403 50 41 5.0 12.0 0.00 0.06 0.05 100 1000.1
20221209091902 50 55 3.0 9.0 0.00 0.06 0.05 100 1000.0
20221209091402 50 64 4.0 6.0 0.00 0.06 0.05 100 1000.0
20221209090903 50 26 1.0 6.0 0.00 0.06 0.05 100 1000.0
20221209090402 50 55 0.0 3.0 0.00 0.06 0.05 100 999.9
20221209085402 50 62 2.0 10.0 0.00 0.06 0.05 100 999.9
20221209084903 50 39 6.0 12.0 0.00 0.06 0.05 100 999.9
20221209084403 50 41 5.0 9.0 0.00 0.06 0.05 100 999.8
20221209083403 50 37 1.0 5.0 0.00 0.06 0.05 100 999.8
20221209082903 50 45 3.0 10.0 0.00 0.06 0.05 100 999.7
20221209082403 50 34 3.0 9.0 0.00 0.06 0.05 100 999.6
20221209081403 50 26 3.0 9.0 0.00 0.06 0.05 100 999.6